TimeEST,TemperatureF,Dew PointF,Humidity,Sea Level PressureIn,VisibilityMPH,Wind Direction,Wind SpeedMPH,Gust SpeedMPH,PrecipitationIn,Events,Conditions,WindDirDegrees,DateUTC
12:15 AM,23.0,17.6,80,30.42,10.0,Calm,Calm,-,N/A,,Clear,0,2013-02-10 05:15:00
12:36 AM,23.0,17.6,80,30.42,10.0,Calm,Calm,-,N/A,,Clear,0,2013-02-10 05:36:00
12:54 AM,23.0,17.6,80,30.42,10.0,Calm,Calm,-,N/A,,Clear,0,2013-02-10 05:54:00
1:15 AM,21.2,17.6,86,30.42,10.0,Calm,Calm,-,N/A,,Clear,0,2013-02-10 06:15:00
1:36 AM,21.2,17.6,86,30.43,10.0,Calm,Calm,-,N/A,,Clear,0,2013-02-10 06:36:00
1:57 AM,21.2,17.6,86,30.43,10.0,Calm,Calm,-,N/A,,Clear,0,2013-02-10 06:57:00
2:15 AM,23.0,17.6,80,30.43,10.0,Calm,Calm,-,N/A,,Clear,0,2013-02-10 07:15:00
2:36 AM,21.2,17.6,86,30.44,10.0,Calm,Calm,-,N/A,,Clear,0,2013-02-10 07:36:00
2:57 AM,21.2,17.6,86,30.44,10.0,Calm,Calm,-,N/A,,Clear,0,2013-02-10 07:57:00
3:15 AM,19.4,14.0,80,30.43,10.0,Calm,Calm,-,N/A,,Clear,0,2013-02-10 08:15:00
3:36 AM,21.2,17.6,86,30.43,10.0,Calm,Calm,-,N/A,,Clear,0,2013-02-10 08:36:00
3:57 AM,19.4,17.6,93,30.44,10.0,Calm,Calm,-,N/A,,Clear,0,2013-02-10 08:57:00
4:15 AM,19.4,17.6,93,30.44,10.0,Calm,Calm,-,N/A,,Clear,0,2013-02-10 09:15:00
4:36 AM,19.4,17.6,93,30.45,10.0,Calm,Calm,-,N/A,,Clear,0,2013-02-10 09:36:00
4:57 AM,19.4,17.6,93,30.45,10.0,Calm,Calm,-,N/A,,Clear,0,2013-02-10 09:57:00
5:15 AM,19.4,17.6,93,30.46,10.0,Calm,Calm,-,N/A,,Clear,0,2013-02-10 10:15:00
5:36 AM,17.6,15.8,93,30.46,10.0,Calm,Calm,-,N/A,,Clear,0,2013-02-10 10:36:00
5:57 AM,17.6,15.8,93,30.46,10.0,Calm,Calm,-,N/A,,Clear,0,2013-02-10 10:57:00
6:15 AM,17.6,14.0,86,30.46,10.0,Calm,Calm,-,N/A,,Clear,0,2013-02-10 11:15:00
6:36 AM,17.6,15.8,93,30.47,10.0,Calm,Calm,-,N/A,,Clear,0,2013-02-10 11:36:00
6:57 AM,17.6,15.8,93,30.48,10.0,Calm,Calm,-,N/A,,Clear,0,2013-02-10 11:57:00
7:15 AM,17.6,14.0,86,30.49,10.0,Calm,Calm,-,N/A,,Clear,0,2013-02-10 12:15:00
7:36 AM,17.6,15.8,93,30.50,10.0,Calm,Calm,-,N/A,,Clear,0,2013-02-10 12:36:00
7:57 AM,19.4,17.6,93,30.51,10.0,Calm,Calm,-,N/A,,Clear,0,2013-02-10 12:57:00
8:15 AM,21.2,19.4,93,30.51,10.0,Calm,Calm,-,N/A,,Clear,0,2013-02-10 13:15:00
8:36 AM,24.8,21.2,86,30.51,10.0,Calm,Calm,-,N/A,,Clear,0,2013-02-10 13:36:00
8:57 AM,28.4,23.0,80,30.51,10.0,Calm,Calm,-,N/A,,Clear,0,2013-02-10 13:57:00
9:15 AM,30.2,19.4,64,30.50,10.0,Calm,Calm,-,N/A,,Clear,0,2013-02-10 14:15:00
9:36 AM,32.0,19.4,60,30.51,10.0,East,3.5,-,N/A,,Clear,100,2013-02-10 14:36:00
9:57 AM,32.0,19.4,60,30.50,10.0,ESE,6.9,-,N/A,,Clear,110,2013-02-10 14:57:00
10:18 AM,32.0,17.6,55,30.50,10.0,ESE,4.6,-,N/A,,Clear,110,2013-02-10 15:18:00
10:36 AM,32.0,14.0,48,30.50,10.0,East,4.6,-,N/A,,Clear,90,2013-02-10 15:36:00
10:57 AM,35.6,17.6,48,30.50,10.0,East,3.5,-,N/A,,Clear,90,2013-02-10 15:57:00
11:18 AM,35.6,14.0,41,30.50,10.0,Calm,Calm,-,N/A,,Clear,0,2013-02-10 16:18:00
11:36 AM,37.4,14.0,38,30.49,10.0,ESE,3.5,-,N/A,,Clear,120,2013-02-10 16:36:00
11:57 AM,37.4,12.2,36,30.47,10.0,ESE,6.9,-,N/A,,Clear,110,2013-02-10 16:57:00
12:18 PM,37.4,12.2,36,30.45,10.0,SSW,4.6,-,N/A,,Clear,200,2013-02-10 17:18:00
12:36 PM,41.0,12.2,31,30.45,10.0,SE,5.8,-,N/A,,Clear,140,2013-02-10 17:36:00
12:57 PM,41.0,12.2,31,30.45,10.0,South,3.5,-,N/A,,Clear,180,2013-02-10 17:57:00
1:18 PM,41.0,12.2,31,30.43,10.0,Calm,Calm,-,N/A,,Clear,0,2013-02-10 18:18:00
1:36 PM,41.0,12.2,31,30.42,10.0,ESE,4.6,-,N/A,,Clear,120,2013-02-10 18:36:00
1:57 PM,44.6,12.2,27,30.41,10.0,South,9.2,-,N/A,,Clear,190,2013-02-10 18:57:00
2:18 PM,42.8,12.2,29,30.39,10.0,SE,6.9,-,N/A,,Clear,130,2013-02-10 19:18:00
2:36 PM,42.8,14.0,31,30.39,10.0,ESE,3.5,-,N/A,,Clear,120,2013-02-10 19:36:00
2:57 PM,42.8,14.0,31,30.38,10.0,South,8.1,-,N/A,,Clear,170,2013-02-10 19:57:00
3:18 PM,42.8,12.2,29,30.38,10.0,South,9.2,-,N/A,,Clear,170,2013-02-10 20:18:00
3:36 PM,42.8,12.2,29,30.37,10.0,SSE,6.9,-,N/A,,Clear,160,2013-02-10 20:36:00
3:57 PM,42.8,12.2,29,30.37,10.0,SSE,6.9,-,N/A,,Clear,160,2013-02-10 20:57:00
4:18 PM,41.0,14.0,33,30.36,10.0,SE,8.1,-,N/A,,Clear,130,2013-02-10 21:18:00
4:36 PM,39.2,14.0,36,30.36,10.0,ESE,8.1,-,N/A,,Clear,120,2013-02-10 21:36:00
4:57 PM,37.4,12.2,36,30.37,10.0,SE,8.1,-,N/A,,Clear,130,2013-02-10 21:57:00
5:18 PM,37.4,14.0,38,30.38,10.0,SE,5.8,-,N/A,,Clear,140,2013-02-10 22:18:00
5:36 PM,35.6,15.8,44,30.37,10.0,ESE,8.1,-,N/A,,Clear,120,2013-02-10 22:36:00
5:57 PM,35.6,14.0,41,30.36,10.0,ESE,6.9,-,N/A,,Clear,120,2013-02-10 22:57:00
6:18 PM,35.6,14.0,41,30.37,10.0,SE,5.8,-,N/A,,Clear,130,2013-02-10 23:18:00
6:36 PM,35.6,14.0,41,30.37,10.0,SE,5.8,-,N/A,,Clear,140,2013-02-10 23:36:00
6:57 PM,35.6,15.8,44,30.36,10.0,SE,5.8,-,N/A,,Clear,140,2013-02-10 23:57:00
7:18 PM,35.6,17.6,48,30.36,10.0,SE,5.8,-,N/A,,Clear,140,2013-02-11 00:18:00
7:39 PM,35.6,17.6,48,30.36,10.0,SSE,4.6,-,N/A,,Clear,150,2013-02-11 00:39:00
7:57 PM,35.6,15.8,44,30.36,10.0,SE,5.8,-,N/A,,Clear,140,2013-02-11 00:57:00
8:18 PM,35.6,14.0,41,30.36,10.0,SE,5.8,-,N/A,,Clear,130,2013-02-11 01:18:00
8:57 PM,35.6,19.4,52,30.35,10.0,SE,4.6,-,N/A,,Clear,130,2013-02-11 01:57:00
9:18 PM,35.6,21.2,56,30.34,10.0,SE,5.8,-,N/A,,Clear,140,2013-02-11 02:18:00
9:39 PM,35.6,24.8,65,30.33,10.0,Calm,Calm,-,N/A,,Clear,0,2013-02-11 02:39:00
9:57 PM,35.6,26.6,70,30.32,10.0,SE,6.9,-,N/A,,Clear,140,2013-02-11 02:57:00
10:18 PM,35.6,28.4,75,30.31,10.0,SSE,5.8,-,N/A,,Clear,150,2013-02-11 03:18:00
10:39 PM,35.6,28.4,75,30.31,10.0,SSE,4.6,-,N/A,,Clear,150,2013-02-11 03:39:00
11:18 PM,35.6,30.2,81,30.29,10.0,SE,5.8,-,N/A,,Scattered Clouds,130,2013-02-11 04:18:00
11:39 PM,35.6,30.2,81,30.29,10.0,Calm,Calm,-,N/A,,Clear,0,2013-02-11 04:39:00